| |
Missouri Department of Transportation

Social Media Facebook Twitter Flickr Instagram YouTube RSS

Current AWOS Information

 
AWOS Home - General Info for all Airports
Current AWOS for all Airports - Current METAR for all Airports
Glossary - Disclaimer - Other Links


LEBANON--FLOYD W JONES LEBANON--KLBO
 
Recent AWOS History
 
03/29/15     07:22 AM CDT      12:22 GMT
Air Temperature 36°F (2°C ) 1st Cloud Layer Clear
Dew Point 27°F (-3°C) 2nd Cloud Layer  
Barometric Pressure 30.06 in Hg. 3rd Cloud Layer  
Wind Speed 19 mph (17 knots) Density Altitude  
Peak Wind Gusts 27 mph (24 knots) Variable Wind Directions  
Wind Direction Quadrant(160°) Variable Visibility  
Visibility 10 statute miles  

Thunderstorm and Precipitation Identification: 
Thunderstorm Remarks: 

Current METAR Record: METAR KLBO 291225Z AUTO 16018G24KT 10SM CLR 02/M03 A3006 RMK AO2

 

 

 

About Us
How Do I...
Contact Us
Missouri Department of Transportation
Central Office
105 W. Capitol Avenue
Jefferson City, MO 65102
1-888-ASK-MODOT (275-6636)
1-866-831-6277 (Motor Carrier Services)
Drivers License Offices
horz_bar
| | |
Missouri State Government
© 2013 Missouri Department of Transportation. All Rights Reserved.   Privacy Policy.
 
 
 
 
RSS FeedYoutubeBlogFlickrTwitter Facebook